Tracking 26894 objects as of 2-Feb-2023
HD Live streaming from Space Station
objects crossing your sky now

BLOCK DM-SL R/B

Track BLOCK DM-SL R/B now!


NORAD ID: 29350
Int'l Code: 2006-034B
Perigee: 2,922.1 km
Apogee: 35,504.3 km
Inclination: 1.0 °
Period: 678.8 minutes
Semi major axis: 25584 km
RCS: 20.125 m2 (large)
Launch date: August 22, 2006
Source: Sea Launch (SEAL)
Launch site: SEA LAUNCH (SEAL)

Note: This is a ROCKET BODY
Your satellite tracking list
Your tracking list is empty




NASA's NSSDC Master Catalog

Two Line Element Set (TLE):
1 29350U 06034B   23032.51332120 -.00000033  00000-0  00000-0 0  9996
2 29350   1.0134 320.1533 6367647 255.0195 185.1141  2.12151540127487
Source of the keplerian elements: AFSPC